Location: Elstree
(51.6403°N, 0.2969°W)
Time: 16:19:31
(UTC+00:00)

SJ 16-02 - Pass Details

Date: 20 June 2021
Orbit: 606 x 616 km, 75.0° (Epoch: 29 July)

Event Time Altitude Azimuth Distance (km) Brightness Sun altitude
Rises 23:07:50 0° 339° (NNW) 2,878 6.7 -14.0°
Reaches altitude 10° 23:10:07 10° 344° (NNW) 1,969 5.4 -14.0°
Maximum altitude 23:14:26 55° 62° (ENE) 734 1.8 -14.2°
Enters shadow 23:17:28 19° 136° (SE) 1,474 2.8 -14.3°
